Weather History for Benton Harbor, MI

Change the Weather History Date:

Wednesday, May 15, 2013

  Actual Average Record
Temperature  
Mean Temperature 68 °F -  
Max Temperature 81 °F 68 °F 90 °F (1982)
Min Temperature 54 °F 45 °F 30 °F (2008)
Cooling Degree Days 4    
Growing Degree Days 18 (Base 50)    
Moisture  
Dew Point 49 °F    
Average Humidity 49    
Maximum Humidity 80    
Minimum Humidity 35    
Precipitation  
Precipitation 0.00 in - - ()
Sea Level Pressure  
Sea Level Pressure 29.75 in    
Wind  
Wind Speed 13 mph (West)    
Max Wind Speed 25 mph    
Max Gust Speed 38 mph    
Visibility 10 miles    
Events      
Averages and records for this station are not official NWS values.
T = Trace of Precipitation, MM = Missing Value Source: NWS Daily Summary

Daily Weather History Graph

Daily Weather History Graph

Search for Another Location

Airport:

Trip Planner

Search our weather history database for the weather conditions in past years. The results will help you decide how hot, cold, wet, or windy it might be!

Date:

Astronomy

May. 15, 2013 Rise Set
Actual Time 6:24 AM EDT 9:00 PM EDT
Civil Twilight 5:52 AM EDT 9:32 PM EDT
Nautical Twilight 5:12 AM EDT 10:12 PM EDT
Astronomical Twilight 4:27 AM EDT 10:57 PM EDT
Moon 11:00 AM EDT (5/15) 12:45 AM EDT (5/15)
Length of Visible Light 15h 39m
Length of Day
14h 35m
Waxing Crescent, 26% of the Moon is Illuminated
May 15
Waxing Crescent
May 18
First Quarter
May 25
Full
May 31
Last Quarter
Jun 8
New

Hourly Weather History & Observations

Time (EDT) Temp. Heat Index Dew Point Humidity Pressure Visibility Wind Dir Wind Speed Gust Speed Precip Events Conditions
12:53 AM 79.0 °F - 57.9 °F 48% 29.63 in 10.0 mi SSW 11.5 mph 19.6 mph N/A   Clear
1:53 AM 80.1 °F 80.2 °F 55.9 °F 43% 29.60 in 10.0 mi SW 20.7 mph 29.9 mph N/A   Clear
2:53 AM 79.0 °F - 55.0 °F 44% 29.60 in 10.0 mi SW 19.6 mph 25.3 mph N/A   Clear
3:53 AM 78.1 °F - 54.0 °F 43% 29.59 in 10.0 mi SW 21.9 mph 32.2 mph N/A   Clear
4:53 AM 73.9 °F - 53.1 °F 48% 29.61 in 10.0 mi WSW 25.3 mph 38.0 mph N/A   Clear
5:53 AM 71.1 °F - 52.0 °F 51% 29.65 in 10.0 mi WSW 21.9 mph 29.9 mph N/A   Clear
6:53 AM 69.1 °F - 51.1 °F 53% 29.69 in 10.0 mi WSW 17.3 mph - N/A   Clear
7:53 AM 64.9 °F - 51.1 °F 61% 29.71 in 10.0 mi West 12.7 mph - N/A   Clear
8:53 AM 66.0 °F - 51.1 °F 59% 29.75 in 10.0 mi West 10.4 mph - N/A   Clear
9:53 AM 69.1 °F - 48.9 °F 49% 29.77 in 10.0 mi West 11.5 mph - N/A   Clear
10:53 AM 69.1 °F - 45.0 °F 42% 29.80 in 10.0 mi WNW 10.4 mph 23.0 mph N/A   Clear
11:53 AM 69.1 °F - 45.0 °F 42% 29.83 in 10.0 mi NNW 9.2 mph 16.1 mph N/A   Clear
12:53 PM 71.1 °F - 45.0 °F 39% 29.83 in 10.0 mi North 9.2 mph 17.3 mph N/A   Clear
1:53 PM 73.0 °F - 48.0 °F 41% 29.82 in 10.0 mi NNE 10.4 mph 16.1 mph N/A   Clear
2:53 PM 71.1 °F - 45.0 °F 39% 29.84 in 10.0 mi NNW 8.1 mph - N/A   Clear
3:53 PM 72.0 °F - 46.9 °F 41% 29.83 in 10.0 mi Variable 5.8 mph - N/A   Clear
4:53 PM 71.1 °F - 46.9 °F 42% 29.83 in 10.0 mi NNW 6.9 mph - N/A   Clear
5:53 PM 71.1 °F - 46.9 °F 42% 29.81 in 10.0 mi Variable 3.5 mph - N/A   Clear
6:53 PM 73.0 °F - 44.1 °F 35% 29.81 in 10.0 mi Variable 3.5 mph - N/A   Clear
7:53 PM 69.1 °F - 46.0 °F 44% 29.81 in 10.0 mi Calm Calm - N/A   Clear
8:53 PM 66.0 °F - 46.9 °F 50% 29.79 in 10.0 mi East 3.5 mph - N/A   Mostly Cloudy
9:53 PM 60.1 °F - 48.9 °F 67% 29.81 in 10.0 mi East 3.5 mph - N/A   Clear
10:53 PM 57.0 °F - 48.9 °F 74% 29.83 in 10.0 mi Calm Calm - N/A   Clear
11:53 PM 54.0 °F - 48.0 °F 80% 29.83 in 10.0 mi Calm Calm - N/A   Clear